Regional Weather Roundup
Issued by NWS

Home | Current Version | Previous Version | Text Only | Print | Product List | Glossary Off
Versions: 1 2 3 4 5 6 7 8 9 10 11 12 13 14 15 16 17 18 19 20 21 22 23 24 25 26 27 28 29 30 31 32 33 34 35 36 37 38 39 40 41 42 43 44 45 46 47 48 49 50

000
ASUS43 KMKX 160600
RWRWI

WISCONSIN REGIONAL WEATHER ROUNDUP
NATIONAL WEATHER SERVICE MILWAUKEE/SULLIVAN WI
100 AM CDT TUE SEP 16 2014

NOTE: "FAIR" INDICATES FEW OR NO CLOUDS BELOW 12,000 FEET WITH NO
SIGNIFICANT WEATHER AND/OR OBSTRUCTIONS TO VISIBILITY.

WIZ001-002-006>008-014>016-023>028-160700-
NORTHWEST WISCONSIN

CITY           SKY/WX    TMP DP  RH WIND       PRES   REMARKS
SUPERIOR ARPT  CLEAR     41  37  86 SW7       30.15F
ASHLAND        CLEAR     43  37  79 SW7       30.15F
6HR MIN TEMP:  41; 6HR MAX TEMP:  48;

HAYWARD        CLEAR     36  33  89 CALM      30.18S
6HR MIN TEMP:  35; 6HR MAX TEMP:  54;

SIREN          CLEAR     38  36  92 CALM      30.19F
RICE LAKE      CLEAR     39  38  97 CALM      30.21F
LADYSMITH      CLEAR     39  37  94 CALM      30.20F
EAU CLAIRE     NOT AVBL
MENOMONIE      CLEAR     42  40  92 CALM      30.21F
NEW RICHMOND   CLEAR     39  39 100 CALM      30.21F
OSCEOLA        CLEAR     39  39 100 CALM      30.23F
$$

WIZ003>005-009-010-017-018-160700-
NORTH CENTRAL WISCONSIN

CITY           SKY/WX    TMP DP  RH WIND       PRES   REMARKS
WOODRUFF       CLEAR     37  35  93 CALM      30.15F
RHINELANDER    CLEAR     33  32  96 W7        30.16F WCI  27
6HR MIN TEMP:  32; 6HR MAX TEMP:  51;

EAGLE RIVER    FOG       32  32 100 CALM      30.14F VSB 3/4
LAND O LAKES   CLEAR     31  31 100 CALM      30.15S
PHILLIPS       CLEAR     38  35  91 CALM      30.16F
6HR MIN TEMP:  36; 6HR MAX TEMP:  49;

TOMAHAWK       CLEAR     32  32  98 CALM      30.18R
MEDFORD        CLEAR     36  35  96 CALM      30.19R
MERRILL        PTCLDY    35  34  98 CALM      30.18S FOG
$$

WIZ029-030-035-036-043>047-160700-
CENTRAL WISCONSIN

CITY           SKY/WX    TMP DP  RH WIND       PRES   REMARKS
WAUSAU         CLEAR     40  38  93 N3        30.18R
6HR MIN TEMP:  40; 6HR MAX TEMP:  56;

MOSINEE        CLEAR     39  37  93 W6        30.19S WCI  35
MARSHFIELD     CLEAR     40  37  89 W3        30.19S
6HR MIN TEMP:  39; 6HR MAX TEMP:  52;

STEVENS POINT  CLEAR     37  36  96 CALM      30.19S
WAUPACA        CLEAR     44  42  93 CALM      30.19S
WAUTOMA        NOT AVBL
WISC RAPIDS    CLEAR     39  37  92 CALM      30.21S FOG
6HR MIN TEMP:  38; 6HR MAX TEMP:  53; 6HR PCP: TRACE;

CAMP DOUGLAS   NOT AVBL
$$

WIZ011>013-019>022-031-037>040-048>050-160700-
NORTHEAST WISCONSIN

CITY           SKY/WX    TMP DP  RH WIND       PRES   REMARKS
ANTIGO         CLEAR     36  35  96 CALM      30.17R
STURGEON BAY   CLOUDY    52  41  66 N7        30.15S
6HR MIN TEMP:  50; 6HR MAX TEMP:  55;

GREEN BAY      CLEAR     43  41  93 W3        30.17R
6HR MIN TEMP:  43; 6HR MAX TEMP:  55;

MANITOWOC      NOT AVBL
APPLETON       CLEAR     43  37  81 NW8       30.18S
CLINTONVILLE   CLEAR     41  37  87 CALM      30.18S
OSHKOSH        CLOUDY    48  43  82 W5        30.18R
6HR MIN TEMP:  48; 6HR MAX TEMP:  55;

$$

WIZ032>034-041-042-053>061-160700-
SOUTHWEST WISCONSIN

CITY           SKY/WX    TMP DP  RH WIND       PRES   REMARKS
LA CROSSE      CLEAR     46  43  89 SE5       30.22S
6HR MIN TEMP:  45; 6HR MAX TEMP:  57;

SPARTA         CLEAR     37  37 100 CALM      30.22S
VIROQUA        FAIR      43  43 100 CALM      30.22S
BOSCOBEL       FOG       44  43  96 S3        30.23S VSB 1/4
6HR MIN TEMP:  43; 6HR MAX TEMP:  56;

PRAIRIE DU CHI CLOUDY    44  42  94 CALM      30.24R
PLATTEVILLE    FAIR      44  42  95 CALM      30.23R
$$

WIZ056-057-062-063-064-067-068-160700-
SOUTH CENTRAL WISCONSIN

CITY           SKY/WX    TMP DP  RH WIND       PRES   REMARKS
BARABOO/DELLS  CLEAR     41  40  95 CALM      30.21R
LONE ROCK      PTCLDY    45  40  82 W3        30.22S
WATERTOWN      CLEAR     45  45  99 W3        30.18F
MADISON        CLEAR     43  41  93 CALM      30.20S
6HR MIN TEMP:  42; 6HR MAX TEMP:  52;

MIDDLETON      FAIR      44  44  98 W3        30.20S
MONROE         CLEAR     46  45  93 NW9       30.19F
JANESVILLE     CLEAR     45  43  93 CALM      30.19S
$$

WIZ051-052-058>065-066-070>072-160700-
SOUTHEAST WISCONSIN

CITY           SKY/WX    TMP DP  RH WIND       PRES   REMARKS
MILWAUKEE      CLEAR     49  46  90 W3        30.18R
6HR MIN TEMP:  48; 6HR MAX TEMP:  54;

WAUKESHA       CLEAR     45  43  93 W8        30.19S
MILWAUKEE/TIMM CLEAR     45  43  93 W6        30.18S
RACINE         CLEAR     48  45  89 W7        30.19S
6HR MIN TEMP:  47; 6HR MAX TEMP:  53;

BURLINGTON     CLEAR     41  41 100 CALM      30.18S
KENOSHA        CLEAR     46  45  96 NW6       30.18S
6HR MIN TEMP:  42; 6HR MAX TEMP:  51;

FOND DU LAC    CLEAR     45  41  86 CALM      30.19R
6HR MIN TEMP:  45; 6HR MAX TEMP:  54;

SHEBOYGAN      CLEAR     48  45  89 NW8       30.16R
6HR MIN TEMP:  45; 6HR MAX TEMP:  52;

WEST BEND      CLEAR     45  43  93 W5        30.18R
JUNEAU         PTCLDY    45  44  96 CALM      30.19S
$$

LSZ147-162-160700-
LAKE SUPERIOR

STATION/POSITION TIME  TEMP    WIND        PRES    WAVE
                       AIR SEA DIR/SP/G            HT/PER
                 (UTC) (F)     (DEG/KT/KT) (MB)    (FT/S)
W MID LAKE BUOY  0450   50 47  240/ 12/ 14 1019.1F   2/ 4
DEVILS ISLAND    0500   51     230/ 13/ 15 1020.3F
PORT WING        0540   46     190/  7/  9 1020.7F
SAXON HARBOR     0500   45     200/  6/  9 1020.7F
$$

LMZ867-665-643>646-160700-
LAKE MICHIGAN

STATION/POSITION TIME  TEMP    WIND        PRES    WAVE
                       AIR SEA DIR/SP/G            HT/PER
                 (UTC) (F)     (DEG/KT/KT) (MB)    (FT/S)
N MID LAKE BUOY  0450   56 58   10/ 12/ 12 1019.9F   1/ 3
NORTHPORT PIER   0500   55     360/  5/  7 1020.3S
KEWAUNEE LAKESHO 0500                      1019.5
SHEBOYGAN LAKESH 0500   51 50  260/ 11/ 12 1021.2F
PORT WASHINGTON  0500   50     290/  6/  8 1021.7S
ATWATER BUOY     0500   53     260/ 12/ 14 1022.2F
MILWAUKEE LAKESH 0500   51     290/  8/ 10   N/A
S MID LAKE BUOY  0450   58 65  340/ 10/ 12 1021.2R   2/ 3
KENOSHA   LAKESH 0500   50     290/  8/ 11 1021.3F
$$

TC  - TEMPERATURE IN CELSIUS
VSB - VISIBILITY IN STATUTE MILES
WCI - WIND CHILL INDEX
HX  - HEAT INDEX




USA.gov is the U.S. government's official web portal to all federal, state and local government web resources and services.